EXPRESS-AM44

Last updated on Tue Sep 22 2026 00:03:11 GMT+0000 (Coordinated Universal Time)

1 33595U 09007A 26264.41557701 -.00000091 00000+0 00000+0 0 9990 2 33595 3.7036 77.1488 0003382 95.8633 325.9155 1.00272570 53250
UTC large
Height (km)
Speed (km/s)
/
Latitude / Longitude
Inclination (degrees)
Orbital Period (minutes)
Azimuth
Elevation
Range (km)
Doppler Factor

Next 0 passes for location: London (51.5072 / 0.1276)

No passes found over London.
EXPRESS-AM44